Date,TemperatureHighF,TemperatureAvgF,TemperatureLowF,DewpointHighF,DewpointAvgF,DewpointLowF,HumidityHigh,HumidityAvg,HumidityLow,PressureMaxIn,PressureMinIn,WindSpeedMaxMPH,WindSpeedAvgMPH,GustSpeedMaxMPH,PrecipitationSumIn
2013-1-1,37.5,32.8,23.5,29.0,22.4,14.0,81,66,53,29.89,29.71,19,3,0,0.04
2013-1-2,31.1,23.0,15.9,16.0,11.5,7.0,72,62,53,30.05,29.86,14,4,0,0.00
2013-1-3,24.8,16.6,7.4,12.0,3.2,-2.0,70,57,39,30.11,29.98,9,2,0,0.00
2013-1-4,39.1,30.6,20.6,25.0,21.1,13.0,79,68,51,29.96,29.80,8,1,0,0.08
2013-1-5,41.7,32.9,24.2,26.0,22.2,20.0,84,66,46,30.24,29.84,10,2,0,0.07
2013-1-6,42.3,32.8,24.2,33.0,27.9,20.0,93,82,67,30.20,29.91,6,0,0,0.07
2013-1-7,39.1,32.0,24.4,32.0,27.5,22.0,91,83,70,30.39,29.94,14,2,0,0.02
2013-1-8,46.9,38.2,24.3,32.0,30.9,22.0,94,76,56,30.36,30.24,9,1,0,0.01
2013-1-9,45.6,37.6,26.0,40.0,32.4,24.0,94,82,66,30.38,29.98,8,1,0,0.00
2013-1-10,46.6,42.1,33.9,33.0,26.7,25.0,72,55,44,30.50,30.03,21,6,0,0.01
2013-1-11,41.8,35.3,27.0,38.0,30.6,23.0,94,83,72,30.49,30.20,6,0,0,0.01
2013-1-12,45.0,42.4,38.8,43.0,41.1,37.0,97,95,93,30.22,30.10,7,0,0,0.01
2013-1-13,52.5,47.5,42.7,52.0,46.7,42.0,98,97,95,30.13,29.98,9,1,0,0.00
2013-1-14,61.1,53.6,42.3,55.0,46.9,31.0,98,80,46,30.24,29.86,15,3,0,0.01
2013-1-15,41.6,38.5,35.4,37.0,33.3,31.0,93,82,71,30.28,30.18,10,1,0,0.00
2013-1-16,39.2,35.5,33.1,36.0,33.2,31.0,96,91,75,30.21,29.77,5,0,0,0.00
2013-1-17,42.6,36.6,32.0,34.0,30.1,19.0,100,79,60,30.05,29.82,9,3,0,0.00
2013-1-18,32.0,24.0,18.7,20.0,5.6,-4.0,67,46,33,30.45,30.02,22,8,0,0.02
2013-1-19,47.4,38.9,19.4,37.0,28.1,10.0,78,66,53,30.40,29.89,12,3,0,0.03
2013-1-20,54.8,45.3,30.4,39.0,30.5,12.0,76,58,38,29.89,29.53,13,6,0,0.01
2013-1-21,30.1,26.7,23.1,23.0,12.6,7.0,91,57,42,30.08,29.76,13,2,0,0.00
2013-1-22,26.2,22.2,15.3,24.0,11.3,1.0,92,66,39,30.05,29.71,17,4,0,0.00
2013-1-23,15.9,12.3,8.5,3.0,-4.0,-99.9,69,50,37,30.12,30.04,17,-7,0,0.00
2013-1-24,19.8,12.2,4.9,-4.0,-6.2,-10.0,57,44,31,30.18,30.02,18,6,0,0.00
2013-1-25,25.5,17.5,8.7,14.0,-2.5,-8.0,83,43,28,30.27,30.03,11,2,0,0.00
2013-1-26,24.4,18.8,13.6,15.0,7.2,-3.0,87,63,36,30.19,29.97,12,5,0,0.00
2013-1-27,29.9,21.6,12.7,6.0,3.3,-1.0,66,47,33,30.44,30.19,15,5,0,0.00
2013-1-28,32.5,25.0,15.3,31.0,13.8,2.0,94,65,35,30.43,29.98,6,0,0,0.00
2013-1-29,34.4,32.5,29.9,33.0,31.3,29.0,95,95,94,30.18,29.97,7,2,0,0.11
2013-1-30,61.9,51.2,33.4,59.0,49.3,32.0,98,93,88,30.14,29.48,17,4,0,0.16
2013-1-31,61.4,50.1,32.9,58.0,40.6,18.0,96,72,42,29.58,29.00,28,7,0,0.01
2013-2-1,32.8,29.6,23.8,18.0,12.2,6.0,60,49,37,30.05,29.58,14,5,0,0.08
2013-2-2,29.6,25.3,19.0,18.0,10.8,5.0,65,55,40,30.24,30.03,12,2,0,0.03
2013-2-3,29.0,25.9,23.2,25.0,22.3,19.0,90,86,70,30.03,29.69,12,4,0,0.00
2013-2-4,30.6,25.5,20.9,22.0,13.7,8.0,88,63,42,29.92,29.68,13,4,0,0.00
2013-2-5,28.1,25.6,22.9,26.0,16.7,11.0,90,69,59,30.00,29.90,6,1,0,0.00
2013-2-6,38.4,31.7,27.8,30.0,22.7,8.0,94,72,42,30.26,29.89,9,2,0,0.12
2013-2-7,29.1,25.1,20.3,23.0,9.9,4.0,78,54,37,30.50,30.26,15,3,0,0.00
2013-2-8,33.6,32.2,29.3,32.0,28.9,23.0,96,88,77,30.46,29.51,15,3,0,0.03
2013-2-12,44.6,39.5,35.0,30.0,28.9,27.0,73,66,56,29.86,29.70,15,4,0,0.00
2013-2-13,43.2,34.5,29.9,29.0,26.3,23.0,89,72,53,29.85,29.65,11,1,0,0.00
2013-2-14,41.4,34.9,30.5,32.0,27.7,24.0,94,76,53,29.99,29.68,14,2,0,0.07
2013-2-15,49.1,38.9,30.1,38.0,33.5,27.0,95,82,55,30.01,29.90,9,1,0,0.01
2013-2-16,36.8,34.2,31.8,35.0,32.1,30.0,95,92,82,29.93,29.64,19,6,0,0.05
2013-2-17,32.9,23.5,19.6,29.0,16.5,4.0,93,76,47,29.64,29.30,24,13,0,0.05
2013-2-18,32.3,23.8,16.3,6.0,3.9,2.0,56,44,30,30.13,29.62,21,7,0,0.00
2013-2-19,47.9,37.3,23.8,44.0,26.8,4.0,96,68,42,30.14,29.56,7,2,0,0.49
2013-2-20,43.8,34.2,27.1,43.0,23.1,12.0,96,66,43,29.75,29.52,15,5,0,0.51
2013-2-21,32.4,28.8,26.1,21.0,16.2,13.0,69,60,49,30.11,29.76,23,8,0,0.00
2013-2-22,37.0,32.9,28.9,28.0,25.0,20.0,81,73,67,30.34,30.12,19,6,0,0.00
2013-2-23,38.8,35.4,31.5,36.0,31.6,27.0,95,86,77,30.32,29.87,8,1,0,0.28
2013-2-24,40.7,37.1,32.1,40.0,36.2,31.0,97,96,95,29.87,29.62,16,6,0,1.51
2013-2-25,38.2,33.7,30.5,33.0,30.6,28.0,97,89,74,30.22,29.84,13,4,0,0.03
2013-2-26,44.1,35.5,26.6,36.0,30.5,25.0,96,82,63,30.32,30.12,6,1,0,0.00
2013-2-27,43.0,41.3,39.2,42.0,40.0,35.0,98,95,86,30.12,29.52,10,2,0,1.09
2013-2-28,44.6,38.3,35.1,41.0,36.9,34.0,98,94,84,29.63,29.50,8,0,0,0.00
2013-3-1,40.0,37.7,35.6,37.0,33.6,31.0,95,85,76,29.65,29.50,14,5,0,0.00
2013-3-2,41.9,37.8,33.0,32.0,30.3,28.0,82,74,65,29.64,29.60,11,3,0,0.00
2013-3-3,43.1,37.0,33.3,35.0,30.9,27.0,93,78,63,29.61,29.53,8,2,0,0.01
2013-3-4,40.5,34.9,30.6,31.0,27.1,24.0,93,74,56,29.68,29.54,16,7,0,0.00
2013-3-5,41.3,36.1,31.1,36.0,30.2,26.0,93,79,70,30.03,29.69,16,6,0,0.00
2013-3-6,41.1,38.2,32.1,37.0,35.0,30.0,95,88,76,30.07,29.99,13,3,0,0.07
2013-3-7,37.3,35.4,33.3,35.0,33.8,32.0,96,94,87,29.98,29.91,30,12,0,0.91
2013-3-8,41.0,35.2,32.6,37.0,32.9,30.0,98,92,66,30.08,29.85,22,11,0,0.63
2013-3-9,39.9,36.8,34.8,33.0,31.4,30.0,90,81,72,30.32,30.08,20,6,0,0.00
2013-3-10,40.5,37.3,32.4,34.0,32.5,30.0,93,83,76,30.38,30.31,7,1,0,0.00
2013-3-11,50.3,41.3,32.6,42.0,37.3,30.0,93,86,70,30.32,30.14,9,2,0,0.00
2013-3-12,56.7,51.0,43.5,54.0,49.0,42.0,97,93,83,30.16,29.72,15,4,0,0.64
2013-3-13,53.8,46.3,34.8,53.0,36.2,23.0,97,70,39,29.76,29.66,11,4,0,0.05
2013-3-14,36.5,32.7,25.1,27.0,19.0,9.0,77,58,43,29.80,29.68,13,3,0,0.00
2013-3-15,40.7,30.9,21.6,29.0,14.1,7.0,76,52,28,29.85,29.62,17,5,0,0.00
2013-3-16,39.1,33.9,27.5,28.0,20.2,11.0,80,59,32,29.84,29.65,13,2,0,0.00
2013-3-17,37.3,31.6,24.2,26.0,17.4,9.0,92,59,32,30.29,29.84,18,4,0,0.00
2013-3-18,33.7,28.9,20.9,29.0,16.1,5.0,93,60,42,30.43,30.23,11,4,0,0.00
2013-3-19,39.5,35.1,29.4,39.0,34.4,28.0,98,97,92,30.22,29.49,17,5,0,1.31
2013-3-20,39.5,32.7,26.8,29.0,22.7,19.0,96,69,46,29.80,29.64,14,4,0,0.00
2013-3-21,35.1,30.4,25.9,30.0,26.0,23.0,95,84,65,29.80,29.57,10,2,0,0.00
2013-3-22,39.9,33.6,28.7,30.0,24.5,19.0,95,72,43,29.71,29.57,13,2,0,0.11
2013-3-23,42.9,36.5,29.9,25.0,21.6,20.0,76,56,40,29.74,29.61,15,6,0,0.00
2013-3-24,46.1,37.5,31.0,31.0,25.6,21.0,87,63,46,29.79,29.71,13,3,0,0.00
2013-3-25,46.8,38.4,30.9,37.0,32.7,28.0,93,80,60,29.74,29.47,11,2,0,0.01
2013-3-26,48.3,40.0,34.6,34.0,29.4,25.0,93,68,44,29.74,29.47,19,6,0,0.03
2013-3-27,52.1,42.4,31.8,37.0,28.1,24.0,82,59,38,29.83,29.71,13,4,0,0.00
2013-3-28,45.5,41.2,38.0,37.0,34.6,31.0,93,78,58,29.99,29.82,15,6,0,0.02
2013-3-29,55.8,45.6,35.0,39.0,35.7,31.0,87,70,49,30.01,29.95,16,2,0,0.00
2013-3-30,53.6,44.7,35.4,36.0,33.8,32.0,88,67,47,30.07,30.00,13,2,0,0.00
2013-3-31,58.9,45.0,29.9,42.0,32.5,25.0,95,67,28,30.10,29.75,16,2,0,0.03
2013-4-1,59.9,48.4,37.5,47.0,40.6,16.0,97,77,41,29.76,29.50,13,4,0,0.18
2013-4-2,41.6,35.8,30.2,20.0,15.7,11.0,60,45,32,29.93,29.77,18,5,0,0.00
2013-4-3,45.6,37.4,31.0,20.0,16.1,13.0,62,44,28,30.12,29.90,17,5,0,0.00
2013-4-4,53.0,41.0,30.9,33.0,21.4,16.0,79,48,25,30.27,30.05,10,3,0,0.00
2013-4-5,55.0,44.9,38.8,43.0,35.8,28.0,85,71,51,30.05,29.62,19,2,0,0.00
2013-4-6,45.4,37.9,32.3,28.0,18.3,8.0,72,47,22,30.33,29.85,25,7,0,0.00
2013-4-7,51.2,42.8,27.9,43.0,32.7,20.0,94,71,31,30.31,30.00,17,4,0,0.00
2013-4-8,60.9,51.3,47.0,46.0,43.1,39.0,92,75,52,30.10,29.93,13,3,0,0.00
2013-4-9,72.2,53.2,44.8,55.0,46.0,39.0,94,78,45,30.08,29.82,11,2,0,0.00
2013-4-10,55.7,48.1,44.3,47.0,44.5,43.0,96,87,73,29.99,29.86,11,2,0,0.20
2013-4-11,49.8,45.3,43.5,45.0,42.0,38.0,97,88,66,30.11,29.80,10,2,0,0.03
2013-4-12,43.8,40.5,37.9,40.0,36.9,32.0,97,87,71,30.14,29.72,12,3,0,0.59
2013-4-13,47.2,41.0,38.2,40.0,38.2,36.0,97,90,75,29.92,29.70,16,5,0,0.03
2013-4-14,52.7,45.0,38.0,42.0,35.4,29.0,96,72,45,30.18,29.91,10,2,0,0.00
2013-4-15,51.9,43.6,32.9,41.0,36.0,30.0,93,75,57,30.39,30.19,9,2,0,0.00
2013-4-16,60.5,49.9,36.0,49.0,41.5,34.0,96,75,44,30.40,30.08,24,3,0,0.00
2013-4-17,63.5,56.1,46.3,53.0,43.5,34.0,91,65,34,30.31,30.04,18,4,0,0.00
2013-4-18,59.3,49.9,37.6,46.0,38.6,33.0,95,68,38,30.41,30.14,12,3,0,0.00
2013-4-19,72.1,63.4,52.5,65.0,59.8,47.0,97,88,73,30.14,29.70,18,5,0,0.03
2013-4-20,65.5,55.5,47.6,64.0,46.5,30.0,97,74,45,30.17,29.61,11,4,0,0.43
2013-4-21,48.9,42.2,35.1,31.0,27.2,23.0,85,57,43,30.65,30.18,17,4,0,0.00
2013-4-22,50.2,41.8,32.1,40.0,34.4,30.0,95,76,54,30.72,30.56,9,1,0,0.00
2013-4-23,43.5,42.3,40.7,42.0,40.4,34.0,97,93,76,30.56,30.05,18,4,0,0.25
2013-4-24,66.1,51.3,42.8,54.0,46.5,42.0,97,85,60,30.04,29.82,22,8,0,0.02
2013-4-25,63.4,54.2,44.0,53.0,44.2,36.0,93,71,41,30.23,29.84,15,3,0,0.10
2013-4-26,55.7,48.1,40.4,44.0,41.1,38.0,93,77,59,30.40,30.23,10,1,0,0.00
2013-4-27,58.7,49.0,38.7,47.0,38.4,30.0,97,70,35,30.40,30.30,9,1,0,0.00
2013-4-28,63.1,52.7,40.8,46.0,40.3,35.0,93,65,41,30.33,30.22,12,2,0,0.00
2013-4-29,65.4,54.2,44.6,50.0,39.3,22.0,96,63,22,30.27,30.19,11,2,0,0.00
2013-4-30,63.4,51.1,38.2,44.0,36.2,28.0,95,61,28,30.35,30.24,8,1,0,0.00
2013-5-1,60.9,50.1,37.1,48.0,43.1,35.0,96,78,60,30.46,30.35,7,1,0,0.00
2013-5-2,70.7,52.8,42.2,50.0,44.5,41.0,97,77,40,30.45,30.36,7,1,0,0.02
2013-5-3,51.0,46.9,41.6,45.0,42.8,40.0,93,86,78,30.50,30.35,13,3,0,0.00
2013-5-4,52.4,45.6,38.0,45.0,40.3,37.0,97,82,67,30.35,30.30,8,1,0,0.00
2013-5-5,57.0,47.1,35.8,46.0,41.8,34.0,96,82,63,30.30,30.25,10,1,0,0.00
2013-5-6,57.4,49.5,40.2,52.0,46.5,38.0,97,89,78,30.28,30.14,9,1,0,0.00
2013-5-7,73.9,58.3,44.6,61.0,53.2,44.0,98,84,62,30.17,30.09,10,2,0,0.01
2013-5-8,66.7,58.8,52.6,62.0,56.6,51.0,98,92,78,30.18,30.03,9,2,0,0.20
2013-5-9,64.3,58.7,56.4,62.0,57.7,55.0,98,96,86,30.03,29.86,9,0,0,0.72
2013-5-10,70.1,62.8,56.3,62.0,58.3,55.0,99,86,74,29.94,29.86,8,1,0,0.03
2013-5-11,71.9,63.2,58.4,63.0,59.6,56.0,97,88,71,29.91,29.69,12,3,0,0.07
2013-5-12,72.1,62.3,52.4,62.0,55.0,35.0,98,80,45,29.79,29.54,8,2,0,0.08
2013-5-13,60.2,52.4,44.3,40.0,35.1,31.0,72,53,36,29.99,29.80,9,2,0,0.00
2013-5-14,55.5,49.4,43.2,41.0,36.9,33.0,81,63,46,30.02,29.95,15,2,0,0.00
2013-5-15,64.3,52.3,39.6,54.0,41.8,34.0,90,71,34,30.04,29.66,22,2,0,0.01
2013-5-16,81.0,66.9,52.8,54.0,48.7,38.0,95,59,22,29.76,29.61,19,2,0,0.00
2013-5-17,64.4,57.7,49.9,51.0,45.6,42.0,84,65,47,30.20,29.76,13,2,0,0.00
2013-5-18,71.3,58.7,47.4,53.0,47.8,42.0,92,70,38,30.29,30.20,7,1,0,0.00
2013-5-19,68.8,59.3,50.4,56.0,51.8,47.0,95,77,55,30.33,30.22,11,1,0,0.06
2013-5-20,78.2,65.9,55.8,66.0,61.5,54.0,98,87,65,30.21,29.89,8,1,0,0.04
2013-5-21,84.0,60.8,52.2,71.0,58.1,51.0,98,91,62,29.97,29.82,13,2,0,0.07
2013-5-22,63.4,55.9,51.1,60.0,54.4,50.0,98,95,84,29.99,29.86,9,1,0,0.02
2013-5-23,74.9,67.4,57.5,69.0,64.9,57.0,99,92,80,29.91,29.82,11,2,0,0.02
2013-5-24,67.8,63.5,53.2,66.0,62.4,52.0,98,96,90,29.82,29.65,12,3,0,0.70
2013-5-25,53.4,49.5,42.7,52.0,48.2,41.0,98,95,88,29.76,29.65,17,6,0,0.22
2013-5-26,58.2,48.9,40.0,44.0,41.1,38.0,95,76,55,30.07,29.69,11,4,0,0.02
2013-5-27,71.9,57.6,44.4,50.0,42.1,36.0,89,62,29,30.14,30.04,12,2,0,0.00
2013-5-28,69.8,58.5,44.1,57.0,49.3,42.0,97,74,48,30.22,30.14,5,0,0,0.00
2013-5-29,71.5,62.7,58.2,66.0,60.5,57.0,98,92,79,30.19,29.97,8,1,0,0.78
2013-5-30,87.3,75.0,63.8,74.0,68.0,63.0,98,81,55,30.04,29.97,7,1,0,0.03
2013-5-31,93.1,80.1,67.2,72.0,68.0,63.0,95,69,45,30.06,29.92,6,0,0,0.00
2013-6-1,88.9,77.8,68.2,71.0,66.7,63.0,87,70,50,29.96,29.85,9,1,0,0.00
2013-6-2,84.9,73.7,66.0,70.0,66.0,63.0,91,78,56,29.88,29.76,15,2,0,0.00
2013-6-3,70.9,66.9,64.5,69.0,65.6,63.0,99,95,88,29.83,29.75,10,1,0,1.20
2013-6-4,70.8,62.4,53.3,62.0,48.6,45.0,92,62,44,30.06,29.78,13,3,0,0.01
2013-6-5,69.6,59.5,48.0,54.0,49.2,46.0,96,71,46,30.16,30.06,8,1,0,0.00
2013-6-6,69.1,61.4,54.7,59.0,54.4,51.0,94,79,61,30.18,30.08,5,0,0,0.00
2013-6-7,58.4,56.6,54.5,58.0,55.3,53.0,98,95,87,30.10,29.77,8,0,0,2.71
2013-6-8,77.4,63.9,55.4,67.0,60.0,55.0,99,88,68,29.98,29.55,12,2,0,1.47
2013-6-9,78.2,68.3,58.0,65.0,59.4,56.0,96,75,48,30.14,29.98,9,1,0,0.00
2013-6-10,66.7,62.0,57.6,60.0,58.6,56.0,98,89,76,30.18,30.00,2,0,0,0.42
2013-6-11,67.9,60.4,54.4,68.0,59.3,54.0,100,96,85,30.00,29.55,6,1,0,1.74
2013-6-12,69.1,60.6,54.6,60.0,56.8,54.0,99,88,62,29.78,29.53,14,3,0,0.39
2013-6-13,65.8,57.8,53.3,59.0,54.9,52.0,96,90,73,29.80,29.63,4,0,0,0.31
2013-6-14,67.4,57.8,52.9,58.0,53.7,50.0,98,87,64,29.73,29.59,13,3,0,1.18
2013-6-15,77.4,65.6,56.4,58.0,52.9,44.0,94,67,34,29.92,29.73,14,2,0,0.04
2013-6-16,76.7,66.7,54.6,64.0,56.6,52.0,91,72,48,29.92,29.71,4,0,0,0.00
2013-6-17,85.0,71.4,61.6,67.0,63.1,59.0,96,78,48,29.89,29.76,12,1,0,0.08
2013-6-18,72.2,63.1,58.3,65.0,60.5,56.0,98,91,74,29.93,29.86,7,1,0,0.40
2013-6-19,69.8,61.6,55.6,59.0,55.4,52.0,97,81,56,30.13,29.86,10,2,0,0.06
2013-6-20,77.3,65.6,55.1,63.0,57.4,53.0,96,76,51,30.24,30.13,11,1,0,0.00
2013-6-21,82.5,69.4,59.1,68.0,60.2,54.0,91,73,57,30.24,30.17,7,0,0,0.00
2013-6-22,83.2,71.1,62.8,65.0,60.0,56.0,90,69,49,30.21,30.11,8,1,0,0.00
2013-6-23,87.2,75.2,65.8,73.0,67.5,62.0,93,78,60,30.14,29.99,7,1,0,0.00
2013-6-24,92.9,79.6,69.0,76.0,71.6,67.0,97,79,52,30.01,29.84,16,1,0,0.94
2013-6-25,91.3,77.5,67.6,74.0,70.2,67.0,98,80,52,29.89,29.71,5,0,0,0.54
2013-6-26,85.4,74.6,67.0,73.0,70.0,66.0,97,86,66,29.83,29.70,6,0,0,0.20
2013-6-27,67.3,65.1,63.5,67.0,64.5,63.0,99,98,96,29.85,29.73,2,0,0,0.05
2013-6-28,75.0,70.5,65.0,73.0,69.7,65.0,100,97,89,29.73,29.51,13,3,0,0.13
2013-6-29,79.6,73.1,70.3,72.0,70.5,69.0,99,92,74,29.72,29.51,12,2,0,0.03
2013-6-30,80.6,74.0,70.5,74.0,70.8,69.0,97,90,74,29.93,29.72,12,1,0,0.02
2013-7-1,81.5,74.0,71.1,75.0,72.5,70.0,99,95,80,30.07,29.93,10,1,0,0.01
2013-7-2,82.3,72.9,62.8,75.0,70.5,61.0,98,92,72,30.18,30.07,7,1,0,0.01
2013-7-3,87.1,75.9,63.0,77.0,70.9,62.0,99,85,68,30.19,30.11,5,1,0,0.01
2013-7-4,91.6,76.4,73.3,77.0,73.4,72.0,97,91,61,30.18,30.10,4,1,0,0.00
2013-7-5,89.4,87.0,83.8,78.0,77.3,77.0,79,73,67,30.12,30.11,2,1,0,0.00
2013-7-7,90.1,83.7,74.0,78.0,73.8,71.0,97,74,58,29.98,29.91,5,0,0,0.00
2013-7-8,84.4,74.5,66.5,77.0,71.7,66.0,99,91,76,30.03,29.89,8,1,0,0.01
2013-7-9,71.5,68.0,66.2,68.0,66.4,65.0,99,94,88,30.08,30.01,6,1,0,0.00
2013-7-10,84.1,74.9,67.3,77.0,72.5,66.0,99,92,75,30.06,29.79,10,1,0,0.01
2013-7-11,78.9,75.5,72.7,75.0,73.6,72.0,97,93,86,29.89,29.76,4,0,0,0.01
2013-7-12,72.2,68.2,65.8,71.0,65.3,63.0,98,90,81,30.17,29.88,13,2,0,0.01
2013-7-13,75.6,68.5,64.8,71.0,67.2,64.0,99,95,84,30.29,30.16,3,0,0,0.00
2013-7-14,85.7,76.0,68.9,77.0,73.4,68.0,100,92,73,30.28,30.17,7,0,0,0.00
2013-7-15,89.3,78.4,71.5,76.0,72.7,69.0,99,84,55,30.17,30.07,5,0,0,0.01
2013-7-16,86.9,76.8,70.1,73.0,71.0,68.0,95,83,60,30.11,30.07,9,1,0,0.01
2013-7-18,86.5,80.0,76.9,75.0,73.0,70.0,90,79,62,29.99,29.92,2,0,0,0.00
2013-7-19,96.2,84.3,76.0,80.0,76.9,74.0,95,80,54,29.92,29.71,8,0,0,0.00
2013-7-20,92.4,82.0,75.6,79.0,76.2,72.0,94,83,60,29.77,29.60,8,0,0,0.10
2013-7-21,79.3,73.8,68.8,73.0,68.3,65.0,95,83,66,29.97,29.78,5,0,0,0.11
2013-7-22,79.8,72.0,66.2,71.0,68.8,65.0,98,90,74,29.99,29.86,3,0,0,0.00
2013-7-23,84.3,73.8,69.4,79.0,72.2,69.0,100,95,77,29.86,29.51,9,1,0,0.10
2013-7-24,85.7,76.7,70.4,75.0,71.3,62.0,99,84,63,29.89,29.56,10,1,0,0.10
2013-7-25,69.8,63.7,61.5,62.0,59.2,56.0,94,86,74,30.05,29.90,12,4,0,0.00
2013-7-26,67.4,64.8,63.0,67.0,64.2,62.0,99,97,91,30.01,29.88,12,4,0,0.00
2013-7-27,84.0,71.7,62.9,70.0,65.7,62.0,99,83,51,30.04,29.98,7,0,0,0.00
2013-7-28,73.8,69.5,67.2,70.0,68.2,66.0,99,95,88,30.00,29.94,5,1,0,0.00
2013-7-29,80.8,73.2,67.2,74.0,70.6,66.0,99,92,78,30.01,29.95,6,0,0,0.00
2013-7-30,79.7,71.3,63.7,71.0,64.8,62.0,97,81,58,30.06,29.99,7,1,0,0.00
2013-7-31,80.7,70.0,61.9,67.0,62.0,58.0,94,77,50,30.11,30.02,6,0,0,0.00
2013-8-1,80.3,70.7,62.7,68.0,64.6,61.0,97,82,58,30.03,29.88,6,1,0,0.00
2013-8-2,82.0,71.9,63.3,71.0,65.9,62.0,98,83,53,29.87,29.77,7,0,0,0.00
2013-8-3,76.3,71.5,67.8,68.0,66.0,64.0,95,83,71,29.85,29.76,6,0,0,0.00
2013-8-4,77.0,67.9,59.6,65.0,60.4,57.0,92,78,61,29.85,29.75,6,0,0,0.00
2013-8-5,74.6,63.7,56.1,57.0,53.5,49.0,93,72,40,30.02,29.85,9,2,0,0.00
2013-8-6,76.6,61.1,50.3,58.0,53.0,49.0,97,78,46,30.14,30.02,6,0,0,0.00
2013-8-7,76.9,65.2,56.6,65.0,58.1,55.0,98,79,52,30.17,30.11,7,0,0,0.00
2013-8-8,81.2,71.9,64.0,72.0,66.3,56.0,95,83,71,30.13,30.00,6,1,0,0.00
2013-8-9,74.6,73.5,72.1,74.0,72.2,70.0,99,95,91,30.02,29.75,14,2,0,0.00
2013-8-10,83.1,76.0,69.5,74.0,67.3,61.0,98,77,49,29.87,29.77,8,2,0,0.00
2013-8-11,78.5,67.4,55.9,62.0,57.5,54.0,96,73,47,30.05,29.98,4,0,0,0.00
2013-8-12,80.8,71.1,62.2,66.0,63.0,60.0,96,77,53,30.01,29.90,6,0,0,0.00
2013-8-13,72.3,68.1,63.3,69.0,65.6,62.0,96,91,82,29.91,29.67,5,0,0,0.00
2013-8-14,73.4,66.8,61.7,64.0,57.8,54.0,97,75,51,29.93,29.64,11,2,0,0.00
2013-8-15,75.9,66.0,55.1,58.0,54.3,51.0,90,69,44,30.10,29.93,8,1,0,0.00
2013-8-16,78.8,67.6,56.3,61.0,57.2,54.0,95,72,46,30.17,30.09,6,0,0,0.00
2013-8-17,77.4,66.8,57.9,63.0,60.1,55.0,93,80,57,30.26,30.17,5,0,0,0.00
2013-8-18,79.4,67.9,58.6,67.0,62.5,57.0,98,84,58,30.25,30.07,6,0,0,0.00
2013-8-19,81.8,70.4,59.6,65.0,61.6,57.0,93,75,49,30.07,29.93,6,0,0,0.00
2013-8-20,82.8,73.5,64.8,72.0,65.9,62.0,92,78,60,30.07,29.95,5,0,0,0.00
2013-8-21,86.8,75.4,64.4,72.0,66.7,62.0,94,76,52,30.12,30.01,4,0,0,0.00
2013-8-22,85.3,74.3,68.0,74.0,69.5,65.0,95,85,65,30.02,29.81,5,0,0,0.00
2013-8-23,74.3,69.6,61.1,70.0,62.9,58.0,96,80,61,30.07,29.79,11,2,0,0.00
2013-8-24,71.0,64.0,53.4,60.0,54.2,45.0,91,73,41,30.31,30.08,7,2,0,0.00
2013-8-25,79.5,65.1,52.6,61.0,54.7,49.0,93,72,44,30.34,30.17,5,0,0,0.00
2013-8-26,79.4,71.6,65.4,68.0,64.1,58.0,85,78,63,30.18,29.85,7,0,0,0.00
2013-8-27,73.3,70.1,65.9,70.0,68.0,65.0,98,93,84,29.87,29.81,6,0,0,0.00
2013-8-28,77.7,67.1,63.0,70.0,65.3,62.0,99,94,77,29.95,29.84,7,0,0,0.00
2013-8-29,65.0,63.7,61.4,65.0,62.4,59.0,99,95,90,30.04,29.93,8,1,0,0.01
2013-8-30,78.8,68.5,60.6,69.0,64.4,59.0,95,87,71,30.00,29.81,5,0,0,0.01
2013-8-31,80.1,73.8,68.6,75.0,71.0,67.0,97,91,82,29.82,29.78,7,1,0,0.00
2013-9-1,78.7,73.8,70.7,76.0,72.1,70.0,99,94,87,29.86,29.78,8,1,0,0.00
2013-9-2,80.7,74.5,72.5,76.0,72.9,72.0,99,95,84,29.86,29.70,11,2,0,0.00
2013-9-3,81.9,73.3,67.0,74.0,70.3,66.0,97,91,72,29.78,29.67,5,0,0,0.00
2013-9-4,79.5,69.5,59.6,65.0,60.2,58.0,94,74,50,29.90,29.77,9,1,0,0.00
2013-9-5,66.6,62.5,51.5,63.0,58.3,50.0,94,86,74,30.10,29.84,8,1,0,0.00
2013-9-6,67.5,56.3,46.8,52.0,47.9,46.0,96,76,48,30.22,30.08,6,1,0,0.00
2013-9-7,77.0,63.6,50.6,59.0,53.1,47.0,90,71,46,30.08,29.84,5,0,0,0.00
2013-9-8,74.6,64.7,53.9,64.0,54.9,45.0,91,72,46,30.06,29.72,13,2,0,0.00
2013-9-9,68.5,57.2,44.8,53.0,48.0,43.0,94,73,45,30.21,30.06,7,0,0,0.00
2013-9-10,75.3,67.0,56.7,69.0,62.6,53.0,92,85,80,30.15,30.01,9,1,0,0.00
2013-9-11,92.8,79.5,70.7,78.0,73.1,69.0,96,82,56,30.06,29.92,6,0,0,0.00
2013-9-12,83.3,75.5,70.4,74.0,71.0,69.0,96,86,70,29.96,29.67,14,2,0,0.00
2013-9-13,76.2,68.9,60.6,70.0,66.8,59.0,98,93,75,29.71,29.55,7,0,0,0.01
2013-9-14,67.9,61.5,53.5,59.0,55.9,51.0,93,82,68,30.02,29.72,8,1,0,0.00
2013-9-15,70.7,59.6,49.3,57.0,52.9,48.0,97,80,57,30.14,30.02,6,0,0,0.00
2013-9-16,64.7,58.6,52.5,57.0,53.4,44.0,93,83,66,30.19,30.00,10,2,0,0.00
2013-9-17,56.9,52.2,44.1,45.0,41.8,39.0,91,69,53,30.39,30.20,15,4,0,0.00
2013-9-18,72.9,57.1,42.8,53.0,46.1,41.0,96,71,36,30.31,30.12,7,0,0,0.00
2013-9-19,73.7,60.5,51.0,57.0,52.9,48.0,93,77,55,30.12,30.02,4,0,0,0.00
2013-9-20,75.1,62.4,53.2,62.0,56.8,52.0,96,82,61,30.06,29.99,5,0,0,0.00
2013-9-21,75.0,66.3,54.6,67.0,61.6,54.0,98,86,67,30.02,29.74,17,2,0,0.00
2013-9-22,71.4,66.2,55.2,68.0,60.5,48.0,96,82,62,29.79,29.60,15,3,0,0.00
2013-9-23,61.8,54.3,47.4,48.0,44.7,42.0,84,71,57,29.97,29.79,13,4,0,0.00
2013-9-24,63.1,52.0,42.4,51.0,44.8,40.0,91,77,54,29.97,29.79,10,1,0,0.00
2013-9-25,62.8,53.4,44.5,52.0,47.9,43.0,96,83,64,29.95,29.86,12,1,0,0.00
2013-9-26,59.4,56.0,51.2,52.0,50.7,49.0,94,82,72,30.09,29.95,14,2,0,0.00
2013-9-27,63.5,57.6,48.5,56.0,52.9,47.0,95,84,73,30.23,30.09,12,2,0,0.00
2013-9-28,64.7,54.8,45.8,59.0,52.1,45.0,98,90,80,30.30,30.22,8,1,0,0.00
2013-9-29,64.2,53.3,43.2,56.0,49.7,42.0,98,88,70,30.24,30.09,6,0,0,0.00
2013-9-30,62.1,56.6,47.5,57.0,54.0,46.0,98,91,80,30.08,29.94,7,1,0,0.00
2013-10-1,72.3,57.9,46.0,57.0,51.4,44.0,98,81,57,29.94,29.83,9,1,0,0.00
2013-10-2,79.3,66.6,55.3,64.0,59.0,54.0,95,78,57,29.92,29.80,10,1,0,0.00
2013-10-3,78.4,63.6,55.0,59.0,55.2,52.0,92,76,47,30.06,29.93,5,0,0,0.00
2013-10-4,65.4,57.4,50.6,60.0,54.8,48.0,96,91,77,30.07,30.01,0,0,0,0.00
2013-10-5,65.8,60.5,56.7,61.0,57.5,56.0,98,90,71,30.10,30.03,5,0,0,0.00
2013-10-6,60.4,58.7,56.5,59.0,57.6,55.0,97,96,94,30.19,30.09,4,0,0,0.00
2013-10-7,74.4,68.9,60.5,71.0,67.1,59.0,99,94,87,30.10,29.82,13,3,0,0.00
2013-10-8,64.4,57.7,48.6,60.0,49.9,46.0,94,76,54,30.33,29.87,14,2,0,0.00
2013-10-9,61.8,55.5,48.4,49.0,47.1,44.0,94,74,61,30.43,30.33,5,0,0,0.00
2013-10-10,61.2,55.9,48.3,57.0,52.9,46.0,97,89,82,30.32,30.14,7,1,0,0.00
2013-10-11,61.3,57.4,50.0,57.0,54.5,48.0,96,90,82,30.13,30.08,10,3,0,0.00
2013-10-12,61.0,56.8,50.2,59.0,54.0,49.0,96,90,82,30.36,30.11,6,0,0,0.00
2013-10-13,60.7,54.0,41.7,51.0,47.8,40.0,92,80,68,30.41,30.33,4,0,0,0.00
2013-10-14,60.9,48.0,35.5,52.0,44.4,34.0,98,88,69,30.38,30.24,4,0,0,0.00
2013-10-15,65.9,54.8,44.8,54.0,49.7,44.0,98,84,53,30.25,30.15,5,0,0,0.00
2013-10-16,60.2,54.8,47.3,57.0,53.4,46.0,98,95,89,30.15,29.89,10,2,0,0.00
2013-10-17,69.9,61.5,55.4,62.0,58.7,55.0,98,91,75,29.89,29.71,6,0,0,0.00
2013-10-18,67.7,62.2,49.2,63.0,53.8,45.0,96,76,52,29.89,29.60,13,2,0,0.00
2013-10-19,64.5,54.2,43.8,51.0,45.8,41.0,90,75,49,29.97,29.75,7,0,0,0.00
2013-10-20,61.8,54.3,42.2,53.0,43.6,34.0,95,71,38,29.99,29.68,10,2,0,0.00
2013-10-21,65.8,51.4,38.8,48.0,41.4,36.0,91,72,43,30.09,29.99,7,0,0,0.00
2013-10-22,68.7,56.8,45.7,55.0,48.4,42.0,97,75,48,29.96,29.68,10,1,0,0.00
2013-10-23,52.5,46.0,38.1,42.0,39.2,36.0,94,78,57,29.78,29.57,4,0,0,0.00
2013-10-24,53.0,45.8,39.8,39.0,32.7,28.0,82,62,40,29.87,29.61,7,1,0,0.00
2013-10-25,49.3,41.9,34.1,36.0,31.3,28.0,83,67,51,30.14,29.87,9,1,0,0.00
2013-10-26,54.9,44.3,31.6,40.0,33.9,29.0,92,69,42,30.15,29.87,7,1,0,0.12
2013-10-27,55.3,48.2,42.9,42.0,37.0,32.0,92,67,46,30.04,29.80,8,1,0,0.12
2013-10-28,58.5,46.8,34.3,38.0,34.0,30.0,88,63,43,30.32,30.04,10,2,0,0.01
2013-10-29,48.3,39.4,30.6,38.0,32.5,28.0,90,77,61,30.40,30.32,5,0,0,0.01
2013-10-30,50.7,40.1,30.5,46.0,38.1,28.0,100,92,83,30.35,30.18,2,0,0,0.07
2013-10-31,64.0,51.0,34.8,61.0,48.6,33.0,99,91,81,30.22,29.83,13,2,0,0.02
2013-11-1,71.3,65.5,61.7,66.0,60.9,56.0,96,85,75,29.81,29.47,17,4,0,0.01
2013-11-2,64.2,57.2,52.2,56.0,51.3,48.0,92,81,60,29.70,29.57,6,0,0,0.01
2013-11-3,54.3,44.0,37.3,48.0,38.8,26.0,93,82,63,30.35,29.69,16,6,0,0.01
2013-11-4,41.5,36.6,28.4,31.0,26.9,25.0,90,69,56,30.68,30.36,11,4,0,0.00
2013-11-5,47.9,38.2,28.9,37.0,31.9,26.0,91,79,59,30.69,30.51,5,0,0,0.05
2013-11-6,58.9,49.4,37.3,53.0,44.1,35.0,94,83,61,30.51,30.04,8,2,0,0.05
2013-11-7,64.7,56.1,45.2,62.0,53.6,35.0,97,91,68,30.03,29.65,8,2,0,0.09
2013-11-8,48.3,41.2,34.3,36.0,30.1,24.0,83,66,52,30.07,29.79,11,3,0,0.01
2013-11-9,44.9,38.4,31.2,32.0,26.1,23.0,77,62,44,30.18,30.03,12,2,0,0.14
2013-11-10,54.7,46.5,40.1,48.0,39.7,32.0,95,78,63,30.03,29.71,8,1,0,0.02
2013-11-11,51.0,45.7,38.8,41.0,32.1,28.0,73,60,42,30.07,29.83,10,2,0,0.02
2013-11-12,51.9,38.4,29.6,41.0,28.7,19.0,92,69,55,30.15,29.86,17,4,0,0.02
2013-11-13,36.1,30.1,26.1,19.0,17.1,15.0,71,59,45,30.24,30.14,15,4,0,0.01
2013-11-14,50.5,39.9,28.7,30.0,23.4,17.0,65,53,37,30.17,30.02,16,1,0,0.11
2013-11-15,59.7,48.5,40.1,44.0,31.5,22.0,86,54,28,30.19,30.10,8,0,0,0.03
2013-11-16,56.5,45.6,37.6,42.0,36.4,32.0,93,72,41,30.31,30.18,5,0,0,0.03
2013-11-17,58.9,47.8,34.6,59.0,45.4,33.0,99,92,67,30.30,29.85,9,1,0,0.08
2013-11-18,65.3,59.5,50.5,64.0,52.9,37.0,99,80,53,29.84,29.53,10,3,0,0.39
2013-11-19,50.1,41.0,32.9,38.0,26.0,20.0,73,56,45,30.24,29.64,21,7,0,0.39
2013-11-20,40.3,32.8,25.8,21.0,19.1,17.0,77,58,39,30.59,30.24,17,4,0,0.00
2013-11-21,47.7,36.1,25.1,34.0,26.3,19.0,92,69,45,30.61,30.37,4,0,0,0.00
2013-11-22,50.1,44.3,39.7,49.0,40.9,32.0,97,88,74,30.36,29.94,2,0,0,0.19